Location: Hoyos del Collado
(40.3594°N, 5.2003°W)
Time: 14:25:53
(UTC+00:00)

USA 229 - Pass Details

Date: 01 August 2024
Orbit: 871 x 1340 km, 63.4° (Epoch: 21 March)

Event Time Altitude Azimuth Distance (km) Brightness Sun altitude
Rises 21:50:21 0° 252° (WSW) 3,524 6.7 -21.4°
Reaches altitude 10° 21:53:10 10° 264° (W) 2,632 6.2 -21.8°
Maximum altitude 21:58:19 27° 322° (NW) 1,784 5.6 -22.4°
Drops below altitude 10° 22:03:57 10° 19° (NNE) 2,885 6.4 -23.1°
Sets 22:07:13 0° 31° (NNE) 3,928 7.0 -23.4°
